• In Moldova, Republic
  • List of Countries
  • For 7 days
  • Water Temperature
  • Satellite Maps
  • Weather Map
  • Weather Widgets
  • user-avatar
    Login

    Hourly Weather Naftalan

    Today, 26 May, Saturday

    Time Temperature Precipitation Wind Pressure Humidity
    00:00 +25°C° 0 mm 2 mps 758 mmHg 47%
    01:00 +25°C° 0 mm 2 mps 758 mmHg 47%
    02:00 +24°C° 0 mm 2 mps 757 mmHg 48%
    03:00 +24°C° 0 mm 1 mps 757 mmHg 52%
    04:00 +25°C° 0 mm 1 mps 757 mmHg 50%
    05:00 +26°C° 0 mm 1 mps 757 mmHg 48%
    06:00 +26°C° 0 mm 1 mps 758 mmHg 46%
    07:00 +28°C° 0 mm 2 mps 758 mmHg 41%
    08:00 +30°C° 0 mm 2 mps 758 mmHg 35%
    09:00 +32°C° 0 mm 2 mps 758 mmHg 29%
    10:00 +34°C° 0 mm 3 mps 758 mmHg 27%
    11:00 +35°C° 0 mm 3 mps 758 mmHg 26%
    12:00 +36°C° 0 mm 4 mps 759 mmHg 24%
    13:00 +36°C° 0 mm 4 mps 759 mmHg 26%
    14:00 +36°C° 0 mm 4 mps 758 mmHg 28%
    15:00 +36°C° 0 mm 5 mps 758 mmHg 29%
    16:00 +34°C° 0.2 mm 5 mps 759 mmHg 37%
    17:00 +32°C° 0.2 mm 5 mps 759 mmHg 44%
    18:00 +29°C° 0.2 mm 5 mps 759 mmHg 51%
    19:00 +28°C° 0 mm 6 mps 760 mmHg 55%
    20:00 +27°C° 0 mm 7 mps 761 mmHg 58%
    21:00 +26°C° 0 mm 7 mps 762 mmHg 62%
    22:00 +24°C° 0.2 mm 8 mps 762 mmHg 63%
    23:00 +24°C° 0.2 mm 8 mps 763 mmHg 65%

    Tomorrow, 27 May, Sunday

    Time Temperature Precipitation Wind Pressure Humidity
    00:00 +23°C° 0.2 mm 8 mps 764 mmHg 66%
    01:00 +23°C° 0.2 mm 9 mps 764 mmHg 65%
    02:00 +22°C° 0.2 mm 9 mps 765 mmHg 65%
    03:00 +22°C° 0.2 mm 10 mps 765 mmHg 64%
    04:00 +22°C° 0 mm 10 mps 766 mmHg 60%
    05:00 +22°C° 0 mm 10 mps 766 mmHg 56%
    06:00 +22°C° 0 mm 10 mps 767 mmHg 51%
    07:00 +22°C° 0 mm 10 mps 768 mmHg 50%
    08:00 +23°C° 0 mm 9 mps 769 mmHg 49%
    09:00 +24°C° 0 mm 9 mps 769 mmHg 47%
    10:00 +24°C° 0 mm 9 mps 770 mmHg 47%
    11:00 +24°C° 0 mm 8 mps 770 mmHg 46%
    12:00 +24°C° 0 mm 8 mps 770 mmHg 46%
    13:00 +24°C° 0 mm 7 mps 770 mmHg 45%
    14:00 +24°C° 0 mm 7 mps 770 mmHg 44%
    15:00 +24°C° 0 mm 7 mps 770 mmHg 43%
    16:00 +23°C° 0 mm 6 mps 770 mmHg 45%
    17:00 +22°C° 0 mm 6 mps 770 mmHg 47%
    18:00 +21°C° 0 mm 5 mps 770 mmHg 49%
    19:00 +20°C° 0 mm 4 mps 771 mmHg 51%
    20:00 +20°C° 0 mm 4 mps 771 mmHg 54%
    21:00 +19°C° 0 mm 3 mps 771 mmHg 56%
    22:00 +18°C° 0 mm 3 mps 771 mmHg 58%
    23:00 +18°C° 0 mm 2 mps 770 mmHg 59%

    Day after tomorrow, 28 May, Monday

    Time Temperature Precipitation Wind Pressure Humidity
    00:00 +18°C° 0 mm 2 mps 770 mmHg 60%
    01:00 +17°C° 0 mm 2 mps 769 mmHg 61%
    02:00 +18°C° 0 mm 1 mps 769 mmHg 63%
    03:00 +18°C° 0 mm 1 mps 768 mmHg 64%
    04:00 +19°C° 0 mm 1 mps 768 mmHg 61%
    05:00 +19°C° 0 mm 1 mps 768 mmHg 58%
    06:00 +20°C° 0 mm 1 mps 768 mmHg 56%
    07:00 +22°C° 0 mm 1 mps 767 mmHg 55%
    08:00 +23°C° 0 mm 1 mps 767 mmHg 54%
    09:00 +24°C° 0 mm 1 mps 767 mmHg 52%
    10:00 +26°C° 0 mm 2 mps 766 mmHg 49%
    11:00 +27°C° 0 mm 2 mps 765 mmHg 46%
    12:00 +28°C° 0 mm 3 mps 765 mmHg 43%
    13:00 +29°C° 0 mm 4 mps 764 mmHg 44%
    14:00 +29°C° 0 mm 4 mps 764 mmHg 44%
    15:00 +29°C° 0 mm 5 mps 763 mmHg 45%
    16:00 +28°C° 0 mm 5 mps 763 mmHg 50%
    17:00 +27°C° 0 mm 5 mps 763 mmHg 54%
    18:00 +25°C° 0 mm 5 mps 763 mmHg 58%
    19:00 +23°C° 0 mm 4 mps 763 mmHg 62%
    20:00 +22°C° 0 mm 4 mps 763 mmHg 66%
    21:00 +21°C° 0 mm 3 mps 764 mmHg 70%
    22:00 +21°C° 0 mm 2 mps 763 mmHg 73%
    23:00 +20°C° 0 mm 2 mps 763 mmHg 75%

    29 May, Tuesday

    Time Temperature Precipitation Wind Pressure Humidity
    00:00 +21°C° 0 mm 1 mps 763 mmHg 78%
    01:00 +21°C° 0 mm 1 mps 763 mmHg 79%
    02:00 +21°C° 0 mm 1 mps 764 mmHg 79%
    03:00 +20°C° 0 mm 1 mps 764 mmHg 79%
    04:00 +20°C° 0 mm 3 mps 764 mmHg 73%
    05:00 +21°C° 0 mm 4 mps 764 mmHg 67%
    06:00 +23°C° 0 mm 5 mps 765 mmHg 60%
    07:00 +24°C° 0 mm 6 mps 765 mmHg 55%
    08:00 +26°C° 0 mm 7 mps 765 mmHg 49%
    09:00 +27°C° 0 mm 7 mps 765 mmHg 44%
    10:00 +28°C° 0 mm 8 mps 765 mmHg 43%
    11:00 +28°C° 0 mm 8 mps 765 mmHg 42%
    12:00 +29°C° 0 mm 8 mps 765 mmHg 41%
    13:00 +29°C° 0 mm 8 mps 765 mmHg 39%
    14:00 +28°C° 0 mm 8 mps 765 mmHg 38%
    15:00 +28°C° 0 mm 8 mps 765 mmHg 37%
    16:00 +27°C° 0 mm 7 mps 766 mmHg 41%
    17:00 +26°C° 0 mm 7 mps 766 mmHg 45%
    18:00 +24°C° 0 mm 6 mps 766 mmHg 50%
    19:00 +23°C° 0 mm 6 mps 766 mmHg 52%
    20:00 +22°C° 0 mm 5 mps 767 mmHg 55%
    21:00 +21°C° 0 mm 5 mps 767 mmHg 58%
    22:00 +21°C° 0 mm 5 mps 767 mmHg 58%
    23:00 +21°C° 0 mm 5 mps 767 mmHg 57%

    30 May, Wednesday

    Time Temperature Precipitation Wind Pressure Humidity
    00:00 +20°C° 0 mm 5 mps 767 mmHg 57%
    01:00 +20°C° 0 mm 5 mps 767 mmHg 58%
    02:00 +20°C° 0 mm 5 mps 767 mmHg 58%
    03:00 +20°C° 0 mm 5 mps 767 mmHg 59%
    04:00 +20°C° 0 mm 5 mps 767 mmHg 58%
    05:00 +20°C° 0 mm 5 mps 767 mmHg 57%
    06:00 +21°C° 0 mm 5 mps 767 mmHg 56%
    07:00 +22°C° 0 mm 5 mps 767 mmHg 51%
    08:00 +23°C° 0 mm 5 mps 767 mmHg 45%
    09:00 +26°C° 0 mm 4 mps 767 mmHg 39%
    10:00 +27°C° 0 mm 5 mps 766 mmHg 37%
    11:00 +28°C° 0 mm 5 mps 766 mmHg 34%
    12:00 +29°C° 0 mm 5 mps 766 mmHg 31%
    13:00 +29°C° 0 mm 5 mps 765 mmHg 30%
    14:00 +29°C° 0 mm 5 mps 765 mmHg 30%
    15:00 +29°C° 0 mm 6 mps 764 mmHg 29%
    16:00 +28°C° 0 mm 5 mps 764 mmHg 32%
    17:00 +27°C° 0 mm 4 mps 764 mmHg 34%
    18:00 +26°C° 0 mm 4 mps 763 mmHg 36%
    19:00 +25°C° 0 mm 3 mps 764 mmHg 40%
    20:00 +24°C° 0 mm 2 mps 764 mmHg 44%
    21:00 +23°C° 0 mm 2 mps 764 mmHg 47%
    22:00 +23°C° 0 mm 2 mps 763 mmHg 49%
    23:00 +23°C° 0 mm 2 mps 762 mmHg 51%

    31 May, Thursday

    Time Temperature Precipitation Wind Pressure Humidity
    00:00 +22°C° 0 mm 3 mps 761 mmHg 53%
    01:00 +21°C° 0 mm 2 mps 761 mmHg 57%
    02:00 +21°C° 0 mm 2 mps 760 mmHg 60%
    03:00 +21°C° 0 mm 1 mps 760 mmHg 63%
    04:00 +22°C° 0.1 mm 1 mps 759 mmHg 61%
    05:00 +22°C° 0.1 mm 1 mps 759 mmHg 59%
    06:00 +23°C° 0.1 mm 2 mps 759 mmHg 57%
    07:00 +25°C° 0 mm 2 mps 759 mmHg 51%
    08:00 +26°C° 0 mm 2 mps 758 mmHg 45%
    09:00 +28°C° 0 mm 3 mps 758 mmHg 40%
    10:00 +29°C° 0 mm 2 mps 758 mmHg 37%
    11:00 +31°C° 0 mm 2 mps 757 mmHg 34%
    12:00 +32°C° 0 mm 2 mps 756 mmHg 31%
    13:00 +34°C° 0 mm 2 mps 756 mmHg 30%
    14:00 +35°C° 0 mm 3 mps 755 mmHg 30%
    15:00 +35°C° 0 mm 4 mps 755 mmHg 30%
    16:00 +34°C° 0 mm 4 mps 754 mmHg 36%
    17:00 +32°C° 0 mm 4 mps 754 mmHg 41%
    18:00 +30°C° 0 mm 4 mps 754 mmHg 47%
    19:00 +28°C° 0 mm 3 mps 755 mmHg 53%
    20:00 +27°C° 0 mm 2 mps 755 mmHg 59%
    21:00 +25°C° 0 mm 1 mps 755 mmHg 65%
    22:00 +25°C° 0 mm 2 mps 755 mmHg 64%
    23:00 +25°C° 0 mm 2 mps 755 mmHg 64%
    Show more